STARLINK-33786, 63514

Orbit data source: Space-Track

STARLINK-33786, 63514 is a payload satellite owned by SpaceX/Seattle (US) in LEO that was launched on Mon, 07 Apr 2025 UTC via an FALCON 9 launch vehicle from the Air Force Western Test Range (AFWTR). Payload-class satellites include a variety of spacecraft equipped with specific instruments for various scientific and technological missions. These include communications satellites like Starlink; space stations such as the ISS; scientific satellites like the Hubble; Earth observation satellites from companies like Planet Labs, Umbra, and HawkEye 360; GPS; miniature CubeSats for education and research; and military/defense satellites.

Loading next visibility...
Identifier
63514, 2025-071X
Orbit
LEO
Last TLE update
2 days ago
Origin
Manufacturer
SpaceX/Seattle
Mission
Operational spacecraft
Bus & Motor
STARLINK V2MO, Unknown motor
Mass
575 kg wet, ~530 kg dry
Launch date (UTC)
2025-04-07 (3 weeks ago)
Launch vehicle
FALCON 9
Launch site
Air Force Western Test Range (AFWTR)
Object type
Payload
Rocket body
Debris
Shape & HBR
Unknown
Radar Cross Section
Large (>1 m²)

Expand to show TLE details & history

TLE from 2 days ago
0 STARLINK-33786
1 63514U 25071X   25118.38415516  .00011710  00000-0  84173-4 0  9991
2 63514  53.1576 170.2732 0001371 117.4762 242.6398 15.74180377  4034
Epoch: 2025-04-28T09:13Z
Definitive object data (Epoch: 2025-04-28T09:13:11.005Z)
Latitude
0.00002°
Longitude
175.37841°
Altitude
348.305 km
Speed
7.701 km/s
True Right ascension
11h 21m 05s
True Declination
0° 00' 00"
Sunlit
Object was in full shadow at TLE epoch
Visualization TLE readout
Latitude
-36.13231°
Longitude
132.38195°
Altitude
359.31 km
Speed
7.693 km/s
Apparent Right ascension
07h 00m 08s
Apparent Declination
-40° 13' 24"
Sunlit
Object is in daylight
Visualization observer readout
Local Sidereal Time
17:20:34
Azimuth
261.005° W
Elevation
-71.011°
Doppler factor
1
Orbital elements
Apogee altitude
348.148 km
Perigee altitude
346.304 km
Semi-major axis
6,725.363 km
Eccentricity
0.0001371
Inclination
53.1576°
RAAN
170.2732°
Arg. of periapsis
117.4762°
True anomaly
242.62585°
Mean anomaly
242.6398°
Eccentric anomaly
242.63282°
Mean motion
3.93522 °/min
BSTAR
0.000084173
Orbital period
91.48 mins
Loading maneuver chart data...
Loading SW <> Apogee altitude chart data...
Loading historical data...
Loading historical data...
Loading historical data...
Loading historical data...
Loading historical data...
Loading historical data...
Loading historical data...

STARLINK-33786 Visibility forecast

Observer location: undefined°, undefined°

Span
Click to sort rows by Start time (UTC) header in descending order
Start Az.
Max El. time (UTC)
Max El. Az.
Max El.
End time (UTC)
End Az.
5 mins2025-04-30 11:58:40.415Z324.21° NNW2025-04-30 12:00:40.415Z6.688° NNE31.089°2025-04-30 12:03:40.415Z107.206° ESE
4 mins2025-05-01 06:00:40.415Z274.069° WNW2025-05-01 06:02:40.415Z348.456° N26.293°2025-05-01 06:04:40.415Z31.569° NE
|